OPS 4682 DEB, 38452

Orbit data source: Space-Track

OPS 4682 DEB, 38452 is space debris in LEO originally from a launch on Sat, 03 Apr 1965 UTC launched from the Air Force Western Test Range (AFWTR). Debris objects in space refer to the collection of defunct objects orbiting the Earth. Examples of debris include non-operational satellites, rocket bodies, and fragments generated from explosions, collisions, or faulty payload assembly.

Loading next visibility...
Identifier
38452, 1965-027FH
Orbit
LEO
Country
Flag of USUS
Related business
Manufacturer
Unknown
Mission
Spacecraft
Bus & Motor
Unknown
Mass
Unknown
Launch date (UTC)
1965-04-03 (61 years ago)
Launch vehicle
Unknown
Launch site
Air Force Western Test Range (AFWTR)
Object type
Payload
Rocket body
Debris
Shape & HBR
Unknown shape, 0.1 m
Radar Cross Section
Small (<0.1 m²)

Expand to show TLE details & history
Last TLE update: 3 days ago

TLE from 3 days ago
0 OPS 4682 DEB
1 38452U 65027FH  26101.47185782  .00000320  00000-0  11320-2 0  9998
2 38452  90.2521   2.0661 0016702 348.0213  12.0506 12.93979745614477
Epoch: 2026-04-11T11:19Z
TLE epoch observation values (Epoch: 2026-04-11T11:19:28.515Z)
Latitude
-0.00005°
Longitude
-7.49339°
Altitude
1,276.121 km
Speed
7.224 km/s
True Right ascension
00h 08m 15s
True Declination
0° 00' 00"
Sunlit
Object was in daylight at epoch
Visualization orbit readout
Latitude
Unknown
Longitude
Unknown
Altitude
Unknown
Speed
Unknown
Apparent Right ascension
Unknown
Apparent Declination
Unknown
Sunlit
N/A
Visualization observer readout
Local Sidereal Time
14:55:18
Azimuth
Unknown
Elevation
Unknown
Doppler factor
Unknown
Orbital elements
Apogee altitude
1,295.697 km
Perigee altitude
1,270.106 km
Semi-major axis
7,661.039 km
Eccentricity
0.00167
Inclination
90.2521°
RAAN
2.0661°
Arg. of periapsis
348.0213°
True anomaly
12.09064°
Mean anomaly
12.0506°
Eccentric anomaly
12.07061°
Mean motion
3.23677 °/min
Orbital period
111.22 mins
BSTAR
0.001132
Loading maneuver chart data...
Computing Atmospheric mass density...
Loading historical data...
Loading historical data...
Loading historical data...
Loading historical data...
Loading historical data...
Loading historical data...
Loading historical data...

Documentation

Showing up to 5 results
|